Etusivu
METAR-TAF:

METAR-TAF

Lentoasemat :

Waseca Municipal Airport

Waseca, Minnesota, Yhdysvallat

Leveyspiiri: 44-04-24N, Pituuspiiri: 093-33-11W, korkeus merenpinnasta: 343 m

Tämänhetkinen sää

Tämä raportti tehtiin 34 minuuttia sitten, kello 12.39 UTC
Tuuli 3 kn etelästä/lounaasta
Lämpötila 8°C
Kosteus 93%
Ilmanpaine 1017 hPa
Näkyvyys: 16.1 km
selkeää

METAR: KACQ 231239Z AUTO 21003KT 10SM CLR 08/07 A3002 RMK AO2

Aika: 08:13 (13:13 UTC)


TAF: puuttuu

Säähavainnot ja -ennusteet yli 4000 lentoasemalta (METAR- ja TAF-raportit).

Käytössä olevat sääasemat on merkitty karttaan keltaisilla ja punaisilla pisteillä.

Aseta hiiri pisteen päälle nähdäksesi sääaseman nimen.

Klikkaa sitten nähdäksesi säähavainnot ja -ennusteet.

Kartan vaihtaminen: klikkaa mustalla rastilla varustettuja vihreitä pisteitä, niin voit zoomata sisään; viivalla varustettua vihreää pistettä, niin voit zoomata ulos tai vihreitä nuolia, niin pääset viereisille kartoille.


METAR-TAF: